Time,TemperatureF,DewpointF,PressureIn,WindDirection,WindDirectionDegrees,WindSpeedMPH,WindSpeedGustMPH,Humidity,HourlyPrecipIn,Conditions,Clouds,dailyrainin,SoftwareType,DateUTC
2013-02-25 00:02:00,40.8,10.2,32.51,SE,135,0.0,0.0,28,-99.99,,,-99.99,meteohub,2013-02-25 08:02:00,
2013-02-25 00:07:00,41.0,8.8,32.52,SE,135,0.0,0.0,26,-99.99,,,-99.99,meteohub,2013-02-25 08:07:00,
2013-02-25 00:12:00,41.4,9.0,32.52,SE,135,0.0,1.0,26,-99.99,,,-99.99,meteohub,2013-02-25 08:12:00,
2013-02-25 00:17:00,41.4,9.0,32.52,SE,135,0.0,1.0,26,-99.99,,,-99.99,meteohub,2013-02-25 08:17:00,
2013-02-25 00:22:00,41.4,9.0,32.52,SE,135,0.0,1.0,26,-99.99,,,-99.99,meteohub,2013-02-25 08:22:00,
2013-02-25 00:27:00,41.7,9.3,32.52,SE,135,0.0,0.0,26,-99.99,,,-99.99,meteohub,2013-02-25 08:27:00,
2013-02-25 00:32:00,41.5,9.1,32.52,SE,135,0.0,0.0,26,-99.99,,,-99.99,meteohub,2013-02-25 08:32:00,
2013-02-25 00:37:00,41.4,9.0,32.53,SE,135,0.0,0.0,26,-99.99,,,-99.99,meteohub,2013-02-25 08:37:00,
2013-02-25 00:42:00,41.0,8.8,32.53,SE,135,0.0,0.0,26,-99.99,,,-99.99,meteohub,2013-02-25 08:42:00,
2013-02-25 00:47:00,40.8,10.2,32.53,SE,135,0.0,0.0,28,-99.99,,,-99.99,meteohub,2013-02-25 08:47:00,
2013-02-25 00:53:00,40.6,10.0,32.53,SE,135,0.0,0.0,28,-99.99,,,-99.99,meteohub,2013-02-25 08:53:00,
2013-02-25 00:58:00,40.3,10.6,32.54,SE,135,0.0,0.0,29,-99.99,,,-99.99,meteohub,2013-02-25 08:58:00,
2013-02-25 01:03:00,40.3,10.6,32.53,SE,135,0.0,0.0,29,-99.99,,,-99.99,meteohub,2013-02-25 09:03:00,
2013-02-25 01:08:00,40.8,10.9,32.54,SE,135,0.0,0.0,29,-99.99,,,-99.99,meteohub,2013-02-25 09:08:00,
2013-02-25 01:13:00,40.8,10.9,32.53,SE,135,0.0,0.0,29,-99.99,,,-99.99,meteohub,2013-02-25 09:13:00,
2013-02-25 01:18:00,40.6,10.9,32.54,SE,135,0.0,0.0,29,-99.99,,,-99.99,meteohub,2013-02-25 09:18:00,
2013-02-25 01:23:00,40.6,10.9,32.54,SE,135,0.0,0.0,29,-99.99,,,-99.99,meteohub,2013-02-25 09:23:00,
2013-02-25 01:28:00,40.6,10.9,32.54,SE,135,0.0,0.0,29,-99.99,,,-99.99,meteohub,2013-02-25 09:28:00,
2013-02-25 01:33:00,41.4,9.9,32.53,SE,135,0.0,0.0,27,-99.99,,,-99.99,meteohub,2013-02-25 09:33:00,
2013-02-25 01:38:00,41.4,9.0,32.53,SE,135,0.0,0.0,26,-99.99,,,-99.99,meteohub,2013-02-25 09:38:00,
2013-02-25 01:43:00,41.7,9.3,32.53,SE,135,0.0,0.0,26,-99.99,,,-99.99,meteohub,2013-02-25 09:43:00,
2013-02-25 01:48:00,41.7,9.3,32.53,SE,135,0.0,0.0,26,-99.99,,,-99.99,meteohub,2013-02-25 09:48:00,
2013-02-25 01:53:00,41.5,9.1,32.53,SE,135,0.0,0.0,26,-99.99,,,-99.99,meteohub,2013-02-25 09:53:00,
2013-02-25 01:59:00,41.7,9.3,32.54,SE,135,0.0,24.0,26,-99.99,,,-99.99,meteohub,2013-02-25 09:59:00,
2013-02-25 02:04:00,41.7,9.3,32.53,SE,135,0.0,24.0,26,-99.99,,,-99.99,meteohub,2013-02-25 10:04:00,
2013-02-25 02:09:00,41.7,9.3,32.53,SE,135,0.0,0.0,26,-99.99,,,-99.99,meteohub,2013-02-25 10:09:00,
2013-02-25 02:14:00,41.4,9.0,32.53,SE,135,0.0,0.0,26,-99.99,,,-99.99,meteohub,2013-02-25 10:14:00,
2013-02-25 02:19:00,41.2,9.0,32.53,SE,135,0.0,0.0,26,-99.99,,,-99.99,meteohub,2013-02-25 10:19:00,
2013-02-25 02:24:00,41.0,8.8,32.53,SE,135,0.0,0.0,26,-99.99,,,-99.99,meteohub,2013-02-25 10:24:00,
2013-02-25 02:29:00,41.2,9.0,32.53,SE,135,0.0,0.0,26,-99.99,,,-99.99,meteohub,2013-02-25 10:29:00,
2013-02-25 02:34:00,41.5,9.1,32.52,SE,135,0.0,0.0,26,-99.99,,,-99.99,meteohub,2013-02-25 10:34:00,
2013-02-25 02:39:00,41.4,9.0,32.52,SE,135,0.0,0.0,26,-99.99,,,-99.99,meteohub,2013-02-25 10:39:00,
2013-02-25 02:44:00,40.8,10.2,32.51,SE,135,0.0,0.0,28,-99.99,,,-99.99,meteohub,2013-02-25 10:44:00,
2013-02-25 02:49:00,40.8,10.2,32.51,SE,135,0.0,0.0,28,-99.99,,,-99.99,meteohub,2013-02-25 10:49:00,
2013-02-25 02:55:00,41.0,9.5,32.51,SE,135,0.0,0.0,27,-99.99,,,-99.99,meteohub,2013-02-25 10:55:00,
2013-02-25 03:00:00,41.2,9.7,32.51,SE,135,0.0,0.0,27,-99.99,,,-99.99,meteohub,2013-02-25 11:00:00,
2013-02-25 03:05:00,41.2,9.7,32.51,SE,135,0.0,0.0,27,-99.99,,,-99.99,meteohub,2013-02-25 11:05:00,
2013-02-25 03:10:00,40.8,10.2,32.51,SE,135,0.0,0.0,28,-99.99,,,-99.99,meteohub,2013-02-25 11:10:00,
2013-02-25 03:15:00,40.8,10.2,32.51,SE,135,0.0,0.0,28,-99.99,,,-99.99,meteohub,2013-02-25 11:15:00,
2013-02-25 03:20:00,40.8,10.9,32.51,SE,135,0.0,0.0,29,-99.99,,,-99.99,meteohub,2013-02-25 11:20:00,
2013-02-25 03:25:00,41.0,10.4,32.51,SE,135,0.0,0.0,28,-99.99,,,-99.99,meteohub,2013-02-25 11:25:00,
2013-02-25 03:30:00,41.0,10.4,32.51,SE,135,0.0,0.0,28,-99.99,,,-99.99,meteohub,2013-02-25 11:30:00,
2013-02-25 03:35:00,41.2,10.6,32.51,SE,135,0.0,0.0,28,-99.99,,,-99.99,meteohub,2013-02-25 11:35:00,
2013-02-25 03:41:00,41.0,10.4,32.51,SE,135,0.0,0.0,28,-99.99,,,-99.99,meteohub,2013-02-25 11:41:00,
2013-02-25 03:46:00,40.3,10.6,32.51,SE,135,0.0,0.0,29,-99.99,,,-99.99,meteohub,2013-02-25 11:46:00,
2013-02-25 03:51:00,39.6,10.8,32.51,SE,135,0.0,0.0,30,-99.99,,,-99.99,meteohub,2013-02-25 11:51:00,
2013-02-25 03:56:00,39.0,11.7,32.51,SE,135,0.0,0.0,32,-99.99,,,-99.99,meteohub,2013-02-25 11:56:00,
2013-02-25 04:01:00,38.8,12.9,32.51,SE,135,0.0,0.0,34,-99.99,,,-99.99,meteohub,2013-02-25 12:01:00,
2013-02-25 04:06:00,38.8,12.9,32.52,SE,135,0.0,0.0,34,-99.99,,,-99.99,meteohub,2013-02-25 12:06:00,
2013-02-25 04:11:00,39.6,12.7,32.52,SE,135,0.0,0.0,33,-99.99,,,-99.99,meteohub,2013-02-25 12:11:00,
2013-02-25 04:16:00,40.3,12.7,32.52,SE,135,0.0,1.0,32,-99.99,,,-99.99,meteohub,2013-02-25 12:16:00,
2013-02-25 04:21:00,40.3,12.7,32.52,SE,135,0.0,1.0,32,-99.99,,,-99.99,meteohub,2013-02-25 12:21:00,
2013-02-25 04:26:00,39.9,11.7,32.52,SE,135,0.0,1.0,31,-99.99,,,-99.99,meteohub,2013-02-25 12:26:00,
2013-02-25 04:32:00,39.2,12.6,32.52,SE,135,0.0,1.0,33,-99.99,,,-99.99,meteohub,2013-02-25 12:32:00,
2013-02-25 04:37:00,38.7,13.3,32.52,SE,135,0.0,1.0,35,-99.99,,,-99.99,meteohub,2013-02-25 12:37:00,
2013-02-25 04:42:00,37.9,13.3,32.52,SE,135,0.0,0.0,36,-99.99,,,-99.99,meteohub,2013-02-25 12:42:00,
2013-02-25 04:47:00,38.1,14.2,32.52,SE,135,0.0,0.0,37,-99.99,,,-99.99,meteohub,2013-02-25 12:47:00,
2013-02-25 04:52:00,37.8,14.4,32.52,SE,135,0.0,0.0,38,-99.99,,,-99.99,meteohub,2013-02-25 12:52:00,
2013-02-25 04:57:00,38.5,14.5,32.52,SE,135,0.0,0.0,37,-99.99,,,-99.99,meteohub,2013-02-25 12:57:00,
2013-02-25 05:02:00,38.5,14.5,32.52,SE,135,0.0,0.0,37,-99.99,,,-99.99,meteohub,2013-02-25 13:02:00,
2013-02-25 05:07:00,38.5,14.5,32.52,SE,135,0.0,0.0,37,-99.99,,,-99.99,meteohub,2013-02-25 13:07:00,
2013-02-25 05:13:00,39.0,14.4,32.52,SE,135,0.0,0.0,36,-99.99,,,-99.99,meteohub,2013-02-25 13:13:00,
2013-02-25 05:18:00,39.0,14.4,32.52,SE,135,0.0,0.0,36,-99.99,,,-99.99,meteohub,2013-02-25 13:18:00,
2013-02-25 05:23:00,39.0,13.6,32.52,SE,135,1.0,1.0,35,-99.99,,,-99.99,meteohub,2013-02-25 13:23:00,
2013-02-25 05:28:00,39.0,14.4,32.52,SE,135,1.0,1.0,36,-99.99,,,-99.99,meteohub,2013-02-25 13:28:00,
2013-02-25 05:33:00,38.8,14.2,32.52,SE,135,0.0,1.0,36,-99.99,,,-99.99,meteohub,2013-02-25 13:33:00,
2013-02-25 05:38:00,39.2,13.1,32.52,SE,135,0.0,1.0,34,-99.99,,,-99.99,meteohub,2013-02-25 13:38:00,
2013-02-25 05:43:00,39.2,12.6,32.52,SE,135,2.0,2.0,33,-99.99,,,-99.99,meteohub,2013-02-25 13:43:00,
2013-02-25 05:48:00,39.4,12.7,32.53,SE,135,0.0,2.0,33,-99.99,,,-99.99,meteohub,2013-02-25 13:48:00,
2013-02-25 05:53:00,39.6,12.2,32.53,SE,135,0.0,2.0,32,-99.99,,,-99.99,meteohub,2013-02-25 13:53:00,
2013-02-25 05:58:00,40.1,11.8,32.52,SE,135,1.0,2.0,31,-99.99,,,-99.99,meteohub,2013-02-25 13:58:00,
2013-02-25 06:03:00,40.1,11.8,32.52,SE,135,1.0,1.0,31,-99.99,,,-99.99,meteohub,2013-02-25 14:03:00,
2013-02-25 06:08:00,39.7,11.5,32.53,SE,135,1.0,1.0,31,-99.99,,,-99.99,meteohub,2013-02-25 14:08:00,
2013-02-25 06:15:00,39.6,12.2,32.53,SE,135,1.0,1.0,32,-99.99,,,-99.99,meteohub,2013-02-25 14:15:00,
2013-02-25 06:21:00,39.6,12.2,32.53,SE,135,1.0,1.0,32,-99.99,,,-99.99,meteohub,2013-02-25 14:21:00,
2013-02-25 06:26:00,39.6,12.2,32.52,SE,135,0.0,1.0,32,-99.99,,,-99.99,meteohub,2013-02-25 14:26:00,
2013-02-25 06:31:00,39.4,12.7,32.52,SE,135,0.0,1.0,33,-99.99,,,-99.99,meteohub,2013-02-25 14:31:00,
2013-02-25 06:36:00,39.4,12.7,32.53,SE,135,1.0,1.0,33,-99.99,,,-99.99,meteohub,2013-02-25 14:36:00,
2013-02-25 06:41:00,39.9,13.1,32.53,SE,135,0.0,0.0,33,-99.99,,,-99.99,meteohub,2013-02-25 14:41:00,
2013-02-25 06:46:00,40.6,13.8,32.53,SE,135,0.0,1.0,33,-99.99,,,-99.99,meteohub,2013-02-25 14:46:00,
2013-02-25 06:51:00,40.8,14.0,32.53,SE,135,0.0,1.0,33,-99.99,,,-99.99,meteohub,2013-02-25 14:51:00,
2013-02-25 06:56:00,41.4,14.4,32.53,SE,135,0.0,0.0,33,-99.99,,,-99.99,meteohub,2013-02-25 14:56:00,
2013-02-25 07:01:00,42.8,14.9,32.53,SE,135,0.0,0.0,32,-99.99,,,-99.99,meteohub,2013-02-25 15:01:00,
2013-02-25 07:07:00,44.1,13.8,32.53,SE,135,0.0,0.0,29,-99.99,,,-99.99,meteohub,2013-02-25 15:07:00,
2013-02-25 07:12:00,45.3,13.3,32.53,SE,135,1.0,0.0,27,-99.99,,,-99.99,meteohub,2013-02-25 15:12:00,
2013-02-25 07:17:00,46.0,13.1,32.53,SE,135,0.0,1.0,26,-99.99,,,-99.99,meteohub,2013-02-25 15:17:00,
2013-02-25 07:22:00,46.4,15.1,32.53,SE,135,1.0,2.0,28,-99.99,,,-99.99,meteohub,2013-02-25 15:22:00,
2013-02-25 07:27:00,46.8,15.4,32.53,SE,135,1.0,2.0,28,-99.99,,,-99.99,meteohub,2013-02-25 15:27:00,
2013-02-25 07:32:00,46.9,15.4,32.53,SE,135,0.0,1.0,28,-99.99,,,-99.99,meteohub,2013-02-25 15:32:00,
2013-02-25 07:37:00,48.4,15.1,32.53,SE,135,0.0,1.0,26,-99.99,,,-99.99,meteohub,2013-02-25 15:37:00,
2013-02-25 07:42:00,49.5,16.0,32.52,SE,135,0.0,1.0,26,-99.99,,,-99.99,meteohub,2013-02-25 15:42:00,
2013-02-25 07:47:00,50.4,14.9,32.53,SE,135,0.0,1.0,24,-99.99,,,-99.99,meteohub,2013-02-25 15:47:00,
2013-02-25 07:52:00,50.9,16.3,32.53,SE,135,0.0,0.0,25,-99.99,,,-99.99,meteohub,2013-02-25 15:52:00,
2013-02-25 07:57:00,50.7,17.1,32.53,SE,135,0.0,0.0,26,-99.99,,,-99.99,meteohub,2013-02-25 15:57:00,
2013-02-25 08:02:00,51.1,17.4,32.53,SE,135,0.0,1.0,26,-99.99,,,-99.99,meteohub,2013-02-25 16:02:00,
2013-02-25 08:07:00,51.1,17.4,32.52,SE,135,0.0,1.0,26,-99.99,,,-99.99,meteohub,2013-02-25 16:07:00,
2013-02-25 08:12:00,54.1,17.1,32.52,SE,135,0.0,0.0,23,-99.99,,,-99.99,meteohub,2013-02-25 16:12:00,
2013-02-25 08:17:00,55.0,16.9,32.52,SE,135,0.0,0.0,22,-99.99,,,-99.99,meteohub,2013-02-25 16:17:00,
2013-02-25 08:22:00,55.8,20.5,32.52,SE,135,0.0,0.0,25,-99.99,,,-99.99,meteohub,2013-02-25 16:22:00,
2013-02-25 08:27:00,56.8,21.4,32.52,SE,135,0.0,0.0,25,-99.99,,,-99.99,meteohub,2013-02-25 16:27:00,
2013-02-25 08:32:00,57.0,20.5,32.52,SE,135,0.0,0.0,24,-99.99,,,-99.99,meteohub,2013-02-25 16:32:00,
2013-02-25 08:37:00,57.0,21.6,32.52,SE,135,0.0,0.0,25,-99.99,,,-99.99,meteohub,2013-02-25 16:37:00,
2013-02-25 08:42:00,55.9,20.7,32.52,SE,135,0.0,0.0,25,-99.99,,,-99.99,meteohub,2013-02-25 16:42:00,
2013-02-25 08:47:00,55.8,20.5,32.52,SE,135,0.0,0.0,25,-99.99,,,-99.99,meteohub,2013-02-25 16:47:00,
2013-02-25 08:52:00,55.8,19.6,32.52,SE,135,0.0,0.0,24,-99.99,,,-99.99,meteohub,2013-02-25 16:52:00,
2013-02-25 08:57:00,56.1,19.8,32.52,SE,135,0.0,0.0,24,-99.99,,,-99.99,meteohub,2013-02-25 16:57:00,
2013-02-25 09:02:00,55.9,19.6,32.52,SE,135,0.0,0.0,24,-99.99,,,-99.99,meteohub,2013-02-25 17:02:00,
2013-02-25 09:07:00,55.8,19.6,32.52,SE,135,0.0,0.0,24,-99.99,,,-99.99,meteohub,2013-02-25 17:07:00,
2013-02-25 09:12:00,56.5,20.1,32.52,SE,135,0.0,0.0,24,-99.99,,,-99.99,meteohub,2013-02-25 17:12:00,
2013-02-25 09:17:00,57.2,19.8,32.52,SE,135,0.0,0.0,23,-99.99,,,-99.99,meteohub,2013-02-25 17:17:00,
2013-02-25 09:22:00,57.4,19.9,32.51,SE,135,0.0,0.0,23,-99.99,,,-99.99,meteohub,2013-02-25 17:22:00,
2013-02-25 09:27:00,57.7,20.1,32.51,SE,135,0.0,0.0,23,-99.99,,,-99.99,meteohub,2013-02-25 17:27:00,
2013-02-25 09:32:00,56.8,20.5,32.51,SE,135,0.0,1.0,24,-99.99,,,-99.99,meteohub,2013-02-25 17:32:00,
2013-02-25 09:37:00,57.2,19.8,32.51,SE,135,0.0,1.0,23,-99.99,,,-99.99,meteohub,2013-02-25 17:37:00,
2013-02-25 09:42:00,56.8,20.5,32.51,SE,135,0.0,1.0,24,-99.99,,,-99.99,meteohub,2013-02-25 17:42:00,
2013-02-25 09:47:00,57.2,20.7,32.51,SE,135,0.0,0.0,24,-99.99,,,-99.99,meteohub,2013-02-25 17:47:00,
2013-02-25 09:52:00,56.8,21.4,32.51,SE,135,0.0,0.0,25,-99.99,,,-99.99,meteohub,2013-02-25 17:52:00,
2013-02-25 09:57:00,57.0,21.6,32.51,SE,135,0.0,0.0,25,-99.99,,,-99.99,meteohub,2013-02-25 17:57:00,
2013-02-25 10:02:00,57.4,20.8,32.50,SE,135,0.0,1.0,24,-99.99,,,-99.99,meteohub,2013-02-25 18:02:00,
2013-02-25 10:08:00,57.7,20.1,32.50,SE,135,0.0,1.0,23,-99.99,,,-99.99,meteohub,2013-02-25 18:08:00,
2013-02-25 10:13:00,58.3,20.7,32.50,SE,135,0.0,1.0,23,-99.99,,,-99.99,meteohub,2013-02-25 18:13:00,
2013-02-25 10:18:00,59.0,20.1,32.50,SE,135,0.0,0.0,22,-99.99,,,-99.99,meteohub,2013-02-25 18:18:00,
2013-02-25 10:23:00,59.5,20.7,32.50,SE,135,0.0,1.0,22,-99.99,,,-99.99,meteohub,2013-02-25 18:23:00,
2013-02-25 10:28:00,59.4,20.5,32.51,SE,135,0.0,1.0,22,-99.99,,,-99.99,meteohub,2013-02-25 18:28:00,
2013-02-25 10:33:00,59.2,20.3,32.51,SE,135,0.0,1.0,22,-99.99,,,-99.99,meteohub,2013-02-25 18:33:00,
2013-02-25 10:38:00,59.7,20.8,32.51,SE,135,0.0,0.0,22,-99.99,,,-99.99,meteohub,2013-02-25 18:38:00,
2013-02-25 10:43:00,60.3,21.2,32.51,SE,135,0.0,0.0,22,-99.99,,,-99.99,meteohub,2013-02-25 18:43:00,
2013-02-25 10:48:00,60.3,21.2,32.51,SE,135,0.0,0.0,22,-99.99,,,-99.99,meteohub,2013-02-25 18:48:00,
2013-02-25 10:53:00,60.4,21.4,32.50,SE,135,1.0,0.0,22,-99.99,,,-99.99,meteohub,2013-02-25 18:53:00,
2013-02-25 10:59:00,60.6,21.6,32.51,SE,135,0.0,0.0,22,-99.99,,,-99.99,meteohub,2013-02-25 18:59:00,
2013-02-25 11:04:00,61.0,20.8,32.50,SE,135,0.0,1.0,21,-99.99,,,-99.99,meteohub,2013-02-25 19:04:00,
2013-02-25 11:09:00,60.6,21.6,32.51,SE,135,0.0,1.0,22,-99.99,,,-99.99,meteohub,2013-02-25 19:09:00,
2013-02-25 11:14:00,60.6,21.6,32.50,SE,135,0.0,1.0,22,-99.99,,,-99.99,meteohub,2013-02-25 19:14:00,
2013-02-25 11:19:00,61.7,21.4,32.50,SE,135,0.0,0.0,21,-99.99,,,-99.99,meteohub,2013-02-25 19:19:00,
2013-02-25 11:24:00,63.3,21.6,32.50,SE,135,0.0,0.0,20,-99.99,,,-99.99,meteohub,2013-02-25 19:24:00,
2013-02-25 11:29:00,63.9,21.9,32.50,SE,135,0.0,0.0,20,-99.99,,,-99.99,meteohub,2013-02-25 19:29:00,
2013-02-25 11:34:00,63.9,21.9,32.50,SE,135,1.0,0.0,20,-99.99,,,-99.99,meteohub,2013-02-25 19:34:00,
2013-02-25 11:39:00,64.2,22.3,32.50,SE,135,0.0,1.0,20,-99.99,,,-99.99,meteohub,2013-02-25 19:39:00,
2013-02-25 11:44:00,65.7,22.3,32.49,SE,135,0.0,1.0,19,-99.99,,,-99.99,meteohub,2013-02-25 19:44:00,
2013-02-25 11:50:00,66.6,21.7,32.48,SE,135,0.0,1.0,18,-99.99,,,-99.99,meteohub,2013-02-25 19:50:00,
2013-02-25 11:55:00,65.7,22.3,32.48,SE,135,1.0,0.0,19,-99.99,,,-99.99,meteohub,2013-02-25 19:55:00,
2013-02-25 12:00:00,64.2,22.3,32.48,SE,135,0.0,1.0,20,-99.99,,,-99.99,meteohub,2013-02-25 20:00:00,
2013-02-25 12:05:00,64.4,21.2,32.48,SE,135,0.0,1.0,19,-99.99,,,-99.99,meteohub,2013-02-25 20:05:00,
2013-02-25 12:10:00,64.6,21.4,32.47,SE,135,0.0,1.0,19,-99.99,,,-99.99,meteohub,2013-02-25 20:10:00,
2013-02-25 12:15:00,65.1,21.7,32.47,SE,135,0.0,0.0,19,-99.99,,,-99.99,meteohub,2013-02-25 20:15:00,
2013-02-25 12:20:00,65.3,21.9,32.47,SE,135,0.0,0.0,19,-99.99,,,-99.99,meteohub,2013-02-25 20:20:00,
2013-02-25 12:25:00,64.0,22.1,32.47,SE,135,0.0,0.0,20,-99.99,,,-99.99,meteohub,2013-02-25 20:25:00,
2013-02-25 12:30:00,64.4,21.2,32.47,SE,135,0.0,0.0,19,-99.99,,,-99.99,meteohub,2013-02-25 20:30:00,
2013-02-25 12:35:00,66.4,21.6,32.47,SE,135,0.0,1.0,18,-99.99,,,-99.99,meteohub,2013-02-25 20:35:00,
2013-02-25 12:40:00,67.1,22.1,32.46,SE,135,0.0,1.0,18,-99.99,,,-99.99,meteohub,2013-02-25 20:40:00,
2013-02-25 12:45:00,65.1,21.7,32.46,SE,135,0.0,1.0,19,-99.99,,,-99.99,meteohub,2013-02-25 20:45:00,
2013-02-25 12:50:00,65.8,22.5,32.46,SE,135,0.0,1.0,19,-99.99,,,-99.99,meteohub,2013-02-25 20:50:00,
2013-02-25 12:55:00,68.4,21.9,32.46,SE,135,2.0,2.0,17,-99.99,,,-99.99,meteohub,2013-02-25 20:55:00,
2013-02-25 13:00:00,65.7,22.3,32.46,SE,135,0.0,2.0,19,-99.99,,,-99.99,meteohub,2013-02-25 21:00:00,
2013-02-25 13:06:00,64.0,22.1,32.45,SE,135,0.0,2.0,20,-99.99,,,-99.99,meteohub,2013-02-25 21:06:00,
2013-02-25 13:11:00,65.3,21.9,32.46,SE,135,0.0,2.0,19,-99.99,,,-99.99,meteohub,2013-02-25 21:11:00,
2013-02-25 13:16:00,67.6,22.6,32.46,SE,135,0.0,1.0,18,-99.99,,,-99.99,meteohub,2013-02-25 21:16:00,
2013-02-25 13:21:00,67.6,22.6,32.45,SE,135,2.0,2.0,18,-99.99,,,-99.99,meteohub,2013-02-25 21:21:00,
2013-02-25 13:26:00,66.9,22.1,32.45,SE,135,1.0,2.0,18,-99.99,,,-99.99,meteohub,2013-02-25 21:26:00,
2013-02-25 13:31:00,66.6,21.7,32.45,SE,135,0.0,2.0,18,-99.99,,,-99.99,meteohub,2013-02-25 21:31:00,
2013-02-25 13:36:00,67.8,22.8,32.44,SE,135,0.0,2.0,18,-99.99,,,-99.99,meteohub,2013-02-25 21:36:00,
2013-02-25 13:41:00,66.7,21.9,32.44,SE,135,1.0,1.0,18,-99.99,,,-99.99,meteohub,2013-02-25 21:41:00,
2013-02-25 13:46:00,66.6,21.7,32.44,SE,135,0.0,1.0,18,-99.99,,,-99.99,meteohub,2013-02-25 21:46:00,
2013-02-25 13:51:00,67.6,22.6,32.44,SE,135,1.0,1.0,18,-99.99,,,-99.99,meteohub,2013-02-25 21:51:00,
2013-02-25 13:56:00,66.7,21.9,32.44,SE,135,1.0,1.0,18,-99.99,,,-99.99,meteohub,2013-02-25 21:56:00,
2013-02-25 14:01:00,65.5,22.1,32.44,SE,135,1.0,2.0,19,-99.99,,,-99.99,meteohub,2013-02-25 22:01:00,
2013-02-25 14:06:00,64.4,21.2,32.44,SE,135,0.0,2.0,19,-99.99,,,-99.99,meteohub,2013-02-25 22:06:00,
2013-02-25 14:11:00,66.2,21.4,32.44,SE,135,2.0,2.0,18,-99.99,,,-99.99,meteohub,2013-02-25 22:11:00,
2013-02-25 14:17:00,66.2,21.4,32.44,SE,135,1.0,2.0,18,-99.99,,,-99.99,meteohub,2013-02-25 22:17:00,
2013-02-25 14:22:00,66.4,21.6,32.44,SE,135,0.0,2.0,18,-99.99,,,-99.99,meteohub,2013-02-25 22:22:00,
2013-02-25 14:27:00,66.7,21.9,32.43,SE,135,0.0,2.0,18,-99.99,,,-99.99,meteohub,2013-02-25 22:27:00,
2013-02-25 14:32:00,66.7,21.9,32.44,North,0,1.0,1.0,18,-99.99,,,-99.99,meteohub,2013-02-25 22:32:00,
2013-02-25 14:37:00,66.6,21.7,32.43,North,0,1.0,1.0,18,-99.99,,,-99.99,meteohub,2013-02-25 22:37:00,
2013-02-25 14:42:00,66.6,21.7,32.43,North,0,1.0,2.0,18,-99.99,,,-99.99,meteohub,2013-02-25 22:42:00,
2013-02-25 14:47:00,68.0,21.6,32.43,North,0,0.0,2.0,17,-99.99,,,-99.99,meteohub,2013-02-25 22:47:00,
2013-02-25 14:52:00,68.0,21.6,32.44,North,0,0.0,1.0,17,-99.99,,,-99.99,meteohub,2013-02-25 22:52:00,
2013-02-25 14:57:00,67.6,22.6,32.43,North,0,1.0,1.0,18,-99.99,,,-99.99,meteohub,2013-02-25 22:57:00,
2013-02-25 15:02:00,67.8,22.8,32.43,North,0,1.0,1.0,18,-99.99,,,-99.99,meteohub,2013-02-25 23:02:00,
2013-02-25 15:07:00,67.8,22.8,32.43,North,0,1.0,1.0,18,-99.99,,,-99.99,meteohub,2013-02-25 23:07:00,
2013-02-25 15:12:00,67.8,22.8,32.43,North,0,1.0,1.0,18,-99.99,,,-99.99,meteohub,2013-02-25 23:12:00,
2013-02-25 15:17:00,68.9,22.3,32.43,North,0,0.0,1.0,17,-99.99,,,-99.99,meteohub,2013-02-25 23:17:00,
2013-02-25 15:22:00,69.6,22.8,32.43,North,0,0.0,1.0,17,-99.99,,,-99.99,meteohub,2013-02-25 23:22:00,
2013-02-25 15:27:00,70.2,21.9,32.42,North,0,0.0,1.0,16,-99.99,,,-99.99,meteohub,2013-02-25 23:27:00,
2013-02-25 15:32:00,70.7,22.3,32.42,North,0,0.0,1.0,16,-99.99,,,-99.99,meteohub,2013-02-25 23:32:00,
2013-02-25 15:37:00,70.7,22.3,32.43,North,0,0.0,0.0,16,-99.99,,,-99.99,meteohub,2013-02-25 23:37:00,
2013-02-25 15:42:00,70.3,22.1,32.42,North,0,0.0,1.0,16,-99.99,,,-99.99,meteohub,2013-02-25 23:42:00,
2013-02-25 15:47:00,69.1,22.5,32.42,North,0,1.0,1.0,17,-99.99,,,-99.99,meteohub,2013-02-25 23:47:00,
2013-02-25 15:52:00,69.8,21.6,32.42,North,0,0.0,1.0,16,-99.99,,,-99.99,meteohub,2013-02-25 23:52:00,
2013-02-25 15:57:00,69.8,21.6,32.41,North,0,0.0,1.0,16,-99.99,,,-99.99,meteohub,2013-02-25 23:57:00,
2013-02-25 16:02:00,69.8,21.6,32.41,North,0,1.0,1.0,16,-99.99,,,-99.99,meteohub,2013-02-26 00:02:00,
2013-02-25 16:07:00,69.8,21.6,32.41,North,0,1.0,1.0,16,-99.99,,,-99.99,meteohub,2013-02-26 00:07:00,
2013-02-25 16:12:00,67.6,22.6,32.41,North,0,1.0,1.0,18,-99.99,,,-99.99,meteohub,2013-02-26 00:12:00,
2013-02-25 16:17:00,67.6,22.6,32.41,North,0,1.0,1.0,18,-99.99,,,-99.99,meteohub,2013-02-26 00:17:00,
2013-02-25 16:34:00,68.0,21.6,32.41,North,0,1.0,1.0,17,-99.99,,,-99.99,meteohub,2013-02-26 00:34:00,
2013-02-25 16:39:00,67.5,22.5,32.40,North,0,1.0,-999.0,18,-99.99,,,-99.99,meteohub,2013-02-26 00:39:00,
2013-02-25 16:44:00,67.3,22.3,32.40,North,0,0.0,1.0,18,-99.99,,,-99.99,meteohub,2013-02-26 00:44:00,
2013-02-25 16:49:00,67.3,22.3,32.40,North,0,0.0,1.0,18,-99.99,,,-99.99,meteohub,2013-02-26 00:49:00,
2013-02-25 16:54:00,64.0,22.1,32.40,North,0,1.0,1.0,20,-99.99,,,-99.99,meteohub,2013-02-26 00:54:00,
2013-02-25 16:59:00,61.7,21.4,32.40,North,0,0.0,0.0,21,-99.99,,,-99.99,meteohub,2013-02-26 00:59:00,
2013-02-25 17:04:00,60.8,21.7,32.41,North,0,0.0,1.0,22,-99.99,,,-99.99,meteohub,2013-02-26 01:04:00,
2013-02-25 17:09:00,59.9,21.9,32.40,North,0,1.0,1.0,23,-99.99,,,-99.99,meteohub,2013-02-26 01:09:00,
2013-02-25 17:15:00,59.4,21.6,32.40,North,0,0.0,1.0,23,-99.99,,,-99.99,meteohub,2013-02-26 01:15:00,
2013-02-25 17:20:00,58.5,21.7,32.40,North,0,0.0,1.0,24,-99.99,,,-99.99,meteohub,2013-02-26 01:20:00,
2013-02-25 17:25:00,58.5,21.7,32.40,North,0,0.0,0.0,24,-99.99,,,-99.99,meteohub,2013-02-26 01:25:00,
2013-02-25 17:30:00,57.2,20.7,32.41,North,0,1.0,1.0,24,-99.99,,,-99.99,meteohub,2013-02-26 01:30:00,
2013-02-25 17:35:00,57.2,20.7,32.41,North,0,1.0,1.0,24,-99.99,,,-99.99,meteohub,2013-02-26 01:35:00,
2013-02-25 17:40:00,56.1,21.7,32.41,North,0,1.0,1.0,26,-99.99,,,-99.99,meteohub,2013-02-26 01:40:00,
2013-02-25 17:45:00,56.1,21.7,32.40,North,0,1.0,1.0,26,-99.99,,,-99.99,meteohub,2013-02-26 01:45:00,